Location: Cahoon Acres
(40.8736°N, 111.8994°W)
Time: 05:00:47
(UTC+00:00)

A-11 Canister half - All Passes

Search period start: 28 May 2020 00:00
Search period end: 07 June 2020 00:00
Orbit: 1515 x 1684 km, 47.2° (Epoch: 27 May)

Date Brightness Start Highest point End Pass type
(mag) Time Alt. Az. Time Alt. Az. Time Alt. Az.
28 May - 01:35:09 10° WNW 01:44:24 67° NNE 01:53:39 10° E daylight
28 May - 03:40:17 10° WNW 03:49:21 63° SW 03:58:33 10° SE visible
28 May - 05:47:08 10° W 05:52:52 18° SW 05:58:41 10° SSW visible
28 May - 18:59:13 10° S 19:06:28 25° SE 19:13:33 10° E daylight
28 May - 21:00:49 10° SW 21:10:18 75° SSE 21:19:33 10° ENE daylight
28 May - 23:06:15 10° W 23:15:33 63° N 23:24:43 10° ENE daylight
29 May - 01:12:12 10° WNW 01:21:27 66° NNE 01:30:40 10° E daylight
29 May - 03:17:22 10° WNW 03:26:29 66° SW 03:35:42 10° SE visible
29 May - 05:23:57 10° W 05:30:04 20° SW 05:36:16 10° SSW visible
29 May - 18:36:40 10° S 18:43:38 23° SE 18:50:28 10° E daylight
29 May - 20:37:55 10° SW 20:47:24 71° SE 20:56:39 10° ENE daylight
29 May - 22:43:14 10° W 22:52:36 64° NNW 23:01:47 10° ENE daylight
30 May - 00:49:15 10° WNW 00:58:29 64° NNE 01:07:42 10° E daylight
30 May - 02:54:26 10° WNW 03:03:36 70° SW 03:12:51 10° SE daylight
30 May - 05:00:48 10° W 05:07:16 22° SW 05:13:49 10° S visible
30 May - 18:14:10 10° S 18:20:49 21° SE 18:27:20 10° E daylight
30 May - 20:15:03 10° SW 20:24:31 68° SE 20:33:44 10° ENE daylight
30 May - 22:20:14 10° W 22:29:38 65° NNW 22:38:50 10° ENE daylight
31 May - 00:26:17 10° WNW 00:35:33 63° NNE 00:44:43 10° E daylight
31 May - 02:31:31 10° WNW 02:40:44 73° SW 02:49:58 10° SE daylight
31 May - 04:37:40 10° W 04:44:27 23° SW 04:51:18 10° S visible
31 May - 17:51:42 10° SSE 17:58:01 20° SE 18:04:11 10° E daylight
31 May - 19:52:10 10° SW 20:01:38 65° SE 20:10:49 10° ENE daylight
31 May - 21:57:15 10° W 22:06:41 67° NNW 22:15:55 10° ENE daylight
01 Jun - 00:03:20 10° WNW 00:12:34 62° N 00:21:45 10° E daylight
01 Jun - 02:08:36 10° WNW 02:17:50 76° SSW 02:27:07 10° SE daylight
01 Jun - 04:14:35 10° WNW 04:21:38 25° SW 04:28:46 10° S visible
01 Jun - 17:29:17 10° SSE 17:35:11 18° SE 17:40:59 10° E daylight
01 Jun - 19:29:18 10° SW 19:38:44 62° SE 19:47:54 10° ENE daylight
01 Jun - 21:34:15 10° W 21:43:43 68° NNW 21:52:59 10° ENE daylight
01 Jun - 23:40:21 10° WNW 23:49:37 61° N 23:58:46 10° E daylight
02 Jun - 01:45:41 10° WNW 01:54:57 79° SSW 02:04:13 10° SE daylight
02 Jun - 03:51:31 10° WNW 03:58:49 27° SW 04:06:12 10° S visible
02 Jun - 17:06:56 10° SSE 17:12:22 16° SE 17:17:42 10° E daylight
02 Jun - 19:06:28 10° SW 19:15:52 59° SE 19:24:59 10° ENE daylight
02 Jun - 21:11:15 10° W 21:20:46 70° NNW 21:30:03 10° ENE daylight
02 Jun - 23:17:23 10° WNW 23:26:40 61° N 23:35:48 10° E daylight
03 Jun - 01:22:45 10° WNW 01:32:03 83° SSW 01:41:20 10° SE daylight
03 Jun - 03:28:28 10° WNW 03:36:00 29° SW 03:43:36 10° S visible
03 Jun - 16:44:41 10° SSE 16:49:34 15° SE 16:54:22 10° E daylight
03 Jun - 18:43:37 10° SW 18:52:59 56° SE 19:02:03 10° ENE daylight
03 Jun - 20:48:15 10° WSW 20:57:49 72° NNW 21:07:08 10° ENE daylight
03 Jun - 22:54:24 10° WNW 23:03:42 60° N 23:12:50 10° E daylight
04 Jun - 00:59:49 10° WNW 01:09:09 86° SSW 01:18:27 10° ESE daylight
04 Jun - 03:05:26 10° WNW 03:13:10 31° SW 03:20:59 10° S daylight
04 Jun - 16:22:32 10° SSE 16:26:45 14° ESE 16:30:54 10° E daylight
04 Jun - 18:20:48 10° SSW 18:30:06 53° SE 18:39:07 10° ENE daylight
04 Jun - 20:25:16 10° WSW 20:34:52 74° NNW 20:44:13 10° ENE daylight
04 Jun - 22:31:24 10° WNW 22:40:44 60° N 22:49:52 10° E daylight
05 Jun - 00:36:54 10° WNW 00:46:15 89° SSW 00:55:32 10° ESE daylight
05 Jun - 02:42:25 10° WNW 02:50:21 33° SW 02:58:19 10° SSE daylight
05 Jun - 16:00:34 10° SE 16:03:56 12° ESE 16:07:16 10° ESE daylight
05 Jun - 17:57:58 10° SSW 18:07:14 50° SE 18:16:12 10° ENE daylight
05 Jun - 20:02:16 10° WSW 20:11:56 76° NNW 20:21:18 10° ENE daylight
05 Jun - 22:08:26 10° WNW 22:17:46 59° N 22:26:54 10° E daylight
06 Jun - 00:13:57 10° WNW 00:23:21 88° NNE 00:32:38 10° ESE daylight
06 Jun - 02:19:25 10° WNW 02:27:32 36° SW 02:35:40 10° SSE daylight
06 Jun - 15:39:01 10° SE 15:41:08 11° ESE 15:43:14 10° ESE daylight
06 Jun - 17:35:11 10° SSW 17:44:22 47° SE 17:53:15 10° ENE daylight
06 Jun - 19:39:17 10° WSW 19:48:59 78° NNW 19:58:23 10° ENE daylight
06 Jun - 21:45:26 10° WNW 21:54:47 59° N 22:03:55 10° E daylight
